Regional Weather Roundup
Issued by NWS Columbia, SC

Home | Current Version | Previous Version | Text Only | Print | Product List | Glossary On
Versions: 1 2 3 4 5 6 7 8 9 10 11 12 13 14 15 16 17 18 19 20 21 22 23 24 25 26 27
000
ASUS42 KCAE 241310
RWRCAE
REGIONAL WEATHER ROUNDUP
NATIONAL WEATHER SERVICE COLUMBIA SC
900 AM EDT WED AUG 24 2016

NOTE: "FAIR" INDICATES FEW OR NO CLOUDS BELOW 12,000 FEET WITH NO
SIGNIFICANT WEATHER AND/OR OBSTRUCTIONS TO VISIBILITY.

NOT ALL STATIONS ARE QUALITY CONTROLLED BY THE NATIONAL
WEATHER SERVICE. USE DATA WITH CAUTION...ESPECIALLY
DEWPOINT OBSERVATIONS.

SCZ001>056-GAZ040-063>065-077-241400-
...UPSTATE SOUTH CAROLINA...

CITY           SKY/WX    TMP DP  RH WIND       PRES   REMARKS
ANDERSON       CLOUDY    75  70  84 SE5       30.29R
LIBERTY        DRIZZLE   71  68  90 NE3       30.31R
SPARTANBURG    MOSUNNY   72  64  78 CALM      30.30S
CLEMSON        HVY RAIN  71  69  93 N6        30.32R FOG
GREENVILLE     LGT RAIN  72  67  84 N7        30.32R
GREENWOOD      MOSUNNY   77  67  71 SE7       30.31R
GREER          CLOUDY    73  68  84 CALM      30.31R
ROCK HILL      MOSUNNY   75  67  76 CALM      30.33R
CHESTER        PTSUNNY   73  64  73 E5        30.32S
LAURENS        PTSUNNY   73  68  83 CALM      30.30S


...CENTRAL SOUTH CAROLINA...

CITY           SKY/WX    TMP DP  RH WIND       PRES   REMARKS
COLUMBIA APT   MOSUNNY   79  68  69 E5        30.28R
COLUMBIA OWENS SUNNY     79  68  69 CALM      30.29S
MCENTIRE ANGB  MOSUNNY   78  67  69 E5        30.29R
ORANGEBURG     SUNNY     78  69  73 NE5       30.28R
SUMTER SHAW    SUNNY     76  67  72 NE6       30.27R
NEWBERRY       CLOUDY    77  70  78 E5        30.32S
AIKEN          FAIR      75  68  78 CALM      30.32S
MANNING        FAIR      73  68  83 NE3       30.28S
LANCASTER      MOSUNNY   73  70  88 E5        30.31S
WINNSBORO      MOSUNNY   77  68  73 SE5       30.30S


...EASTERN AND COASTAL SOUTH CAROLINA...

CITY           SKY/WX    TMP DP  RH WIND       PRES   REMARKS
MYRTLE BEACH   SUNNY     79  61  53 NE8       30.28S
N MYRTLE BCH   SUNNY     77  64  64 NE8       30.26S
CONWAY         FAIR      75  64  69 NE5       30.27S
MARION         FAIR      73  63  68 NE3       30.29R
HARTSVILLE     FAIR      73  64  73 E5        30.30R
FLORENCE       SUNNY     77  65  66 NE3       30.29S
DARLINGTON     SUNNY     76  66  71 E7        30.30S
CHARLESTON APT MOSUNNY   81  69  67 NE9       30.25R
MOUNT PLEASANT FAIR      79  72  78 CALM      30.25S
WALTERBORO     SUNNY     81  70  69 NE6       30.27R
BEAUFORT       MOSUNNY   81  71  71 N6        30.25R


...EASTERN GEORGIA...

CITY           SKY/WX    TMP DP  RH WIND       PRES   REMARKS
AUGUSTA BUSH F PTSUNNY   77  69  76 E3        30.27R
AUGUSTA DANIEL PTSUNNY   79  68  69 E6        30.29R
THOMSON        CLOUDY    78  73  84 MISG      30.32S
WASHINGTON     FAIR      77  75  94 E3        30.28F
CLAXTON        FAIR      78  74  86 N5        30.25R
SYLVANIA       SUNNY    N/A N/A N/A E7        30.27R
STATESBORO     MOSUNNY   79  72  80 NE3       30.26R
SAVANNAH       MOSUNNY   80  71  74 N7        30.24R


...SOUTHERN NORTH CAROLINA...

CITY           SKY/WX    TMP DP  RH WIND       PRES   REMARKS
CHARLOTTE      PTSUNNY   75  65  70 SE8       30.33R
MONROE         PTSUNNY   73  65  75 CALM      30.32R
WADESBORO      SUNNY     74  65  74 CALM      30.31S
ROCKINGHAM     SUNNY     76  62  63 SE3       30.31S
RUTHERFORDTON    N/A     71  69  92 CALM      30.34S
ASHEVILLE      CLOUDY    66  62  87 SE3       30.37S

$$




USA.gov is the U.S. government's official web portal to all federal, state and local government web resources and services.